H1 CPF 2 NER 2022 10 13 9 286 01 glonass141 H2 1908801 9141 44850 2022 10 13 0 0 0 2022 10 16 23 45 0 900 1 1 0 0 0 1 H9 10 0 59865 0.00000 0 -2381096.884 25344661.590 -1742777.382 10 0 59865 900.00000 0 -2216691.387 25379083.595 1476783.407 10 0 59865 1800.00000 0 -2040930.572 25007242.922 4667692.767 10 0 59865 2700.00000 0 -1909365.908 24237066.407 7768061.349 10 0 59865 3600.00000 0 -1874972.535 23089622.522 10717789.677 10 0 59865 4500.00000 0 -1985676.375 21598293.094 13459727.442 10 0 59865 5400.00000 0 -2282099.776 19807450.242 15940773.191 10 0 59865 6300.00000 0 -2795620.599 17770694.191 18112893.823 10 0 59865 7200.00000 0 -3546826.301 15548725.594 19934044.936 10 0 59865 8100.00000 0 -4544427.980 13206940.781 21368975.284 10 0 59865 9000.00000 0 -5784680.202 10812849.331 22389900.872 10 0 59865 9900.00000 0 -7251331.360 8433420.531 22977036.583 10 0 59865 10800.00000 0 -8916107.590 6132467.722 23118975.911 10 0 59865 11700.00000 0 -10739711.217 3968177.858 22812911.978 10 0 59865 12600.00000 0 -12673293.548 1990887.553 22064695.692 10 0 59865 13500.00000 0 -14660342.317 241196.729 20888729.694 10 0 59865 14400.00000 0 -16638906.835 -1251502.837 19307699.491 10 0 59865 15300.00000 0 -18544069.684 -2470023.597 17352146.025 10 0 59865 16200.00000 0 -20310563.272 -3409862.038 15059886.752 10 0 59865 17100.00000 0 -21875423.043 -4079142.520 12475295.083 10 0 59865 18000.00000 0 -23180566.987 -4498027.547 9648450.936 10 0 59865 18900.00000 0 -24175193.592 -4697619.286 6634177.733 10 0 59865 19800.00000 0 -24817897.344 -4718398.490 3490983.658 10 0 59865 20700.00000 0 -25078412.152 -4608266.618 279927.365 10 0 59865 21600.00000 0 -24938908.361 -4420274.105 -2936569.939 10 0 59865 22500.00000 0 -24394787.458 -4210131.239 -6095942.650 10 0 59865 23400.00000 0 -23454939.736 -4033607.753 -9136704.716 10 0 59865 24300.00000 0 -22141452.792 -3943932.277 -11999654.737 10 0 59865 25200.00000 0 -20488782.119 -3989303.037 -14629037.755 10 0 59865 26100.00000 0 -18542417.916 -4210616.632 -16973640.051 10 0 59865 27000.00000 0 -16357103.729 -4639512.501 -18987794.726 10 0 59865 27900.00000 0 -13994681.496 -5296817.255 -20632277.818 10 0 59865 28800.00000 0 -11521653.501 -6191455.956 -21875076.907 10 0 59865 29700.00000 0 -9006563.518 -7319877.478 -22692017.056 10 0 59865 30600.00000 0 -6517306.883 -8666019.232 -23067231.846 10 0 59865 31500.00000 0 -4118482.129 -10201813.445 -22993470.472 10 0 59865 32400.00000 0 -1868894.678 -11888214.314 -22472235.208 10 0 59865 33300.00000 0 180683.573 -13676703.231 -21513746.925 10 0 59865 34200.00000 0 1989405.838 -15511209.018 -20136739.703 10 0 59865 35100.00000 0 3527815.302 -17330362.647 -18368088.980 10 0 59865 36000.00000 0 4778823.438 -19069991.789 -16242280.823 10 0 59865 36900.00000 0 5738162.509 -20665750.397 -13800733.105 10 0 59865 37800.00000 0 6414295.260 -22055772.912 -11090982.228 10 0 59865 38700.00000 0 6827787.705 -23183241.678 -8165751.589 10 0 59865 39600.00000 0 7010173.397 -23998759.791 -5081920.485 10 0 59865 40500.00000 0 7002359.056 -24462430.010 -1899413.946 10 0 59865 41400.00000 0 6852640.538 -24545552.725 1319964.487 10 0 59865 42300.00000 0 6614414.322 -24231872.183 4513733.856 10 0 59865 43200.00000 0 6343682.319 -23518319.224 7619947.208 10 0 59865 44100.00000 0 6096456.124 -22415219.976 10578389.751 10 0 59865 45000.00000 0 5926170.699 -20945962.345 13331740.540 10 0 59865 45900.00000 0 5881216.721 -19146134.701 15826675.628 10 0 59865 46800.00000 0 6002695.485 -17062173.002 18014891.957 10 0 59865 47700.00000 0 6322490.654 -14749572.830 19854032.989 10 0 59865 48600.00000 0 6861737.689 -12270740.499 21308499.186 10 0 59865 49500.00000 0 7629755.158 -9692571.964 22350128.787 10 0 59865 50400.00000 0 8623482.834 -7083859.220 22958736.615 10 0 59865 51300.00000 0 9827450.613 -4512630.668 23122501.417 10 0 59865 52200.00000 0 11214280.370 -2043534.318 22838194.728 10 0 59865 53100.00000 0 12745700.907 264628.927 22111247.003 10 0 59865 54000.00000 0 14374035.049 2361121.047 20955649.559 10 0 59865 54900.00000 0 16044098.367 4205140.972 19393693.533 10 0 59865 55800.00000 0 17695431.767 5767280.010 17455550.021 10 0 59865 56700.00000 0 19264776.135 7030498.824 15178698.278 10 0 59865 57600.00000 0 20688686.676 7990585.709 12607211.763 10 0 59865 58500.00000 0 21906178.225 8656077.205 9790914.579 10 0 59865 59400.00000 0 22861290.934 9047644.481 6784423.571 10 0 59865 60300.00000 0 23505468.415 9196971.277 3646093.759 10 0 59865 61200.00000 0 23799647.682 9145170.625 436887.204 10 0 59865 62100.00000 0 23715971.914 8940807.270 -2780812.841 10 0 59865 63000.00000 0 23239052.540 8637609.680 -5944419.176 10 0 59865 63900.00000 0 22366725.992 8291968.941 -8992364.872 10 0 59865 64800.00000 0 21110271.753 7960331.260 -11865309.847 10 0 59865 65700.00000 0 19494081.109 7696595.514 -14507305.309 10 0 59865 66600.00000 0 17554789.437 7549627.243 -16866892.314 10 0 59865 67500.00000 0 15339907.621 7560995.624 -18898112.187 10 0 59865 68400.00000 0 12906009.498 7763030.447 -20561408.389 10 0 59865 69300.00000 0 10316551.082 8177282.405 -21824401.702 10 0 59865 70200.00000 0 7639412.824 8813452.784 -22662523.403 10 0 59865 71100.00000 0 4944267.660 9668838.560 -23059494.066 10 0 59865 72000.00000 0 2299884.941 10728316.886 -23007638.761 10 0 59865 72900.00000 0 -228517.331 11964870.065 -22508032.837 10 0 59865 73800.00000 0 -2581761.801 13340629.105 -21570475.778 10 0 59865 74700.00000 0 -4708939.211 14808391.972 -20213294.081 10 0 59865 75600.00000 0 -6569281.981 16313552.655 -18462977.352 10 0 59865 76500.00000 0 -8133606.933 17796359.712 -16353655.145 10 0 59865 77400.00000 0 -9385268.322 19194409.132 -13926425.107 10 0 59865 78300.00000 0 -10320583.141 20445266.446 -11228545.949 10 0 59865 79200.00000 0 -10948712.905 21489107.658 -8312511.324 10 0 59865 80100.00000 0 -11291008.910 22271267.746 -5235023.161 10 0 59865 81000.00000 0 -11379850.631 22744589.558 -2055884.886 10 0 59865 81900.00000 0 -11257028.088 22871474.411 1163163.553 10 0 59865 82800.00000 0 -10971738.052 22625548.357 4359645.688 10 0 59865 83700.00000 0 -10578280.012 21992874.458 7471560.032 10 0 59865 84600.00000 0 -10133550.104 20972660.489 10438579.477 10 0 59865 85500.00000 0 -9694439.357 19577432.780 13203215.323 10 0 59866 0.00000 0 -9315246.235 17832669.355 15711923.614 10 0 59866 900.00000 0 -9045212.258 15775906.795 17916134.279 10 0 59866 1800.00000 0 -8926284.635 13455360.449 19773180.621 10 0 59866 2700.00000 0 -8991198.893 10928111.964 21247116.733 10 0 59866 3600.00000 0 -9261962.194 8257941.069 22309404.653 10 0 59866 4500.00000 0 -9748800.479 5512889.875 22939460.342 10 0 59866 5400.00000 0 -10449613.643 2762659.634 23125048.554 10 0 59866 6300.00000 0 -11349961.898 75946.418 22862519.514 10 0 59866 7200.00000 0 -12423584.568 -2482175.273 22156883.014 10 0 59866 8100.00000 0 -13633430.678 -4852714.042 21021718.291 10 0 59866 9000.00000 0 -14933159.512 -6984967.562 19478920.830 10 0 59866 9900.00000 0 -16269049.735 -8838382.432 17558290.067 10 0 59866 10800.00000 0 -17582238.569 -10383991.525 15296964.776 10 0 59866 11700.00000 0 -18811198.438 -11605369.516 12738715.758 10 0 59866 12600.00000 0 -19894348.045 -12499067.002 9933108.269 10 0 59866 13500.00000 0 -20772688.768 -13074505.149 6934549.297 10 0 59866 14400.00000 0 -21392355.493 -13353335.308 3801237.283 10 0 59866 15300.00000 0 -21706974.018 -13368290.424 594034.219 10 0 59866 16200.00000 0 -21679724.757 -13161576.673 -2624718.046 10 0 59866 17100.00000 0 -21285024.406 -12782873.374 -5792414.081 10 0 59866 18000.00000 0 -20509753.108 -12287026.044 -8847409.325 10 0 59866 18900.00000 0 -19353973.686 -11731530.827 -11730228.073 10 0 59866 19800.00000 0 -17831110.977 -11173917.553 -14384730.517 10 0 59866 20700.00000 0 -15967582.284 -10669143.221 -16759215.010 10 0 59866 21600.00000 0 -13801893.222 -10267107.277 -18807433.223 10 0 59866 22500.00000 0 -11383236.000 -10010394.914 -20489497.692 10 0 59866 23400.00000 0 -8769648.332 -9932344.782 -21772663.502 10 0 59866 24300.00000 0 -6025809.672 -10055523.606 -22631968.647 10 0 59866 25200.00000 0 -3220566.744 -10390672.740 -23050720.571 10 0 59866 26100.00000 0 -424291.645 -10936171.512 -23020819.504 10 0 59866 27000.00000 0 2293817.337 -11678040.176 -22542912.616 10 0 59866 27900.00000 0 4868379.908 -12590482.337 -21626376.306 10 0 59866 28800.00000 0 7240313.029 -13636943.809 -20289127.402 10 0 59866 29700.00000 0 9359042.591 -14771643.011 -18557267.314 10 0 59866 30600.00000 0 11184356.226 -15941508.072 -16464566.467 10 0 59866 31500.00000 0 12687821.092 -17088438.606 -14051799.483 10 0 59866 32400.00000 0 13853708.993 -18151796.513 -11365944.434 10 0 59866 33300.00000 0 14679391.911 -19071020.424 -8459262.166 10 0 59866 34200.00000 0 15175193.305 -19788253.391 -5388274.127 10 0 59866 35100.00000 0 15363703.509 -20250872.831 -2212659.002 10 0 59866 36000.00000 0 15278589.976 -20413816.089 1005909.909 10 0 59866 36900.00000 0 14962954.270 -20241603.682 4204963.547 10 0 59866 37800.00000 0 14467306.597 -19709975.195 7322448.589 10 0 59866 38700.00000 0 13847244.441 -18807069.203 10297928.013 10 0 59866 39600.00000 0 13160933.963 -17534097.878 13073747.435 10 0 59866 40500.00000 0 12466500.698 -15905488.094 15596145.013 10 0 59866 41400.00000 0 11819439.457 -13948483.072 17816284.051 10 0 59866 42300.00000 0 11270152.108 -11702221.063 19691189.073 10 0 59866 43200.00000 0 10861716.238 -9216328.935 21184568.309 10 0 59866 44100.00000 0 10627977.764 -6549088.461 22267507.728 10 0 59866 45000.00000 0 10592046.937 -3765250.497 22919024.195 10 0 59866 45900.00000 0 10765260.384 -933586.429 23126467.913 10 0 59866 46800.00000 0 11146652.470 1875723.095 22885766.952 10 0 59866 47700.00000 0 11722958.360 4593755.473 22201509.321 10 0 59866 48600.00000 0 12469149.149 7155460.564 21086860.858 10 0 59866 49500.00000 0 13349477.548 9502115.338 19563319.888 10 0 59866 50400.00000 0 14318991.396 11583518.051 17660312.528 10 0 59866 51300.00000 0 15325452.742 13359831.800 15414635.284 10 0 59866 52200.00000 0 16311583.150 14803001.400 12869754.382 10 0 59866 53100.00000 0 17217541.821 15897684.762 10074974.192 10 0 59866 54000.00000 0 17983532.967 16641659.991 7084489.704 10 0 59866 54900.00000 0 18552432.800 17045691.082 3956340.515 10 0 59866 55800.00000 0 18872325.154 17132857.666 751286.219 10 0 59866 56700.00000 0 18898837.952 16937376.893 -2468375.119 10 0 59866 57600.00000 0 18597180.740 16502967.118 -5640022.200 10 0 59866 58500.00000 0 17943795.700 15880822.626 -8701935.097 10 0 59866 59400.00000 0 16927550.764 15127285.351 -11594504.610 10 0 59866 60300.00000 0 15550422.627 14301312.695 -14261401.855 10 0 59866 61200.00000 0 13827639.237 13461849.281 -16650684.211 10 0 59866 62100.00000 0 11787274.152 12665214.725 -18715815.213 10 0 59866 63000.00000 0 9469308.541 11962618.776 -20416577.798 10 0 59866 63900.00000 0 6924199.250 11397909.659 -21719862.491 10 0 59866 64800.00000 0 4211012.212 11005651.406 -22600314.986 10 0 59866 65700.00000 0 1395198.804 10809611.800 -23040830.387 10 0 59866 66600.00000 0 -1453892.125 10821724.910 -23032884.663 10 0 59866 67500.00000 0 -4265662.985 11041571.941 -22576697.091 10 0 59866 68400.00000 0 -6970966.672 11456402.010 -21681220.933 10 0 59866 69300.00000 0 -9504744.032 12041691.515 -20363962.889 10 0 59866 70200.00000 0 -11808490.128 12762217.928 -18650635.282 10 0 59866 71100.00000 0 -13832447.218 13573602.085 -16574648.113 10 0 59866 72000.00000 0 -15537433.868 14424253.248 -14176451.288 10 0 59866 72900.00000 0 -16896235.079 15257634.223 -11502740.239 10 0 59866 73800.00000 0 -17894496.878 16014750.360 -8605540.752 10 0 59866 74700.00000 0 -18531089.530 16636756.888 -5541191.346 10 0 59866 75600.00000 0 -18817926.096 17067574.121 -2369243.411 10 0 59866 76500.00000 0 -18779245.829 17256399.933 848699.056 10 0 59866 77400.00000 0 -18450394.336 17160013.319 4050177.105 10 0 59866 78300.00000 0 -17876153.502 16744771.953 7173088.315 10 0 59866 79200.00000 0 -17108692.805 15988219.583 10156888.495 10 0 59866 80100.00000 0 -16205229.280 14880235.767 12943760.287 10 0 59866 81000.00000 0 -15225495.198 13423679.650 15479726.376 10 0 59866 81900.00000 0 -14229120.156 11634500.695 17715686.392 10 0 59866 82800.00000 0 -13273037.405 9541311.460 19608358.140 10 0 59866 83700.00000 0 -12409022.816 7184439.734 21121106.011 10 0 59866 84600.00000 0 -11681468.995 4614498.662 22224641.614 10 0 59866 85500.00000 0 -11125487.047 1890533.328 22897584.042 10 0 59867 0.00000 0 -10765414.746 -922180.402 23126869.849 10 0 59867 900.00000 0 -10613792.830 -3754596.535 22908005.432 10 0 59867 1800.00000 0 -10670852.383 -6536514.918 22245156.948 10 0 59867 2700.00000 0 -10924534.154 -9199250.869 21151076.301 10 0 59867 3600.00000 0 -11351039.865 -11678245.564 19646863.632 10 0 59867 4500.00000 0 -11915892.871 -13915511.716 17761570.243 10 0 59867 5400.00000 0 -12575464.562 -15861813.777 15531648.422 10 0 59867 6300.00000 0 -13278903.390 -17478492.715 13000257.490 10 0 59867 7200.00000 0 -13970386.269 -18738859.608 10216438.281 10 0 59867 8100.00000 0 -14591598.247 -19629099.975 7234170.877 10 0 59867 9000.00000 0 -15084336.233 -20148650.819 4111332.964 10 0 59867 9900.00000 0 -15393126.822 -20310034.252 908578.564 10 0 59867 10800.00000 0 -15467747.053 -20138154.399 -2311841.260 10 0 59867 11700.00000 0 -15265540.582 -19669086.958 -5487292.549 10 0 59867 12600.00000 0 -14753429.942 -18948412.371 -8555983.191 10 0 59867 13500.00000 0 -13909538.185 -18029163.117 -11458173.585 10 0 59867 14400.00000 0 -12724349.562 -16969472.207 -14137348.716 10 0 59867 15300.00000 0 -11201358.412 -15830022.820 -16541327.719 10 0 59867 16200.00000 0 -9357177.191 -14671407.521 -18623288.416 10 0 59867 17100.00000 0 -7221097.480 -13551509.372 -20342686.166 10 0 59867 18000.00000 0 -4834121.219 -12523016.211 -21666048.482 10 0 59867 18900.00000 0 -2247501.754 -11631173.534 -22567629.743 10 0 59867 19800.00000 0 479144.953 -10911871.073 -23029913.144 10 0 59867 20700.00000 0 3280080.401 -10390143.818 -23043950.238 10 0 59867 21600.00000 0 6085941.738 -10079150.411 -22609531.752 10 0 59867 22500.00000 0 8826394.101 -9979671.454 -21735186.676 10 0 59867 23400.00000 0 11432826.684 -10080148.183 -20438010.061 10 0 59867 24300.00000 0 13840980.518 -10357258.965 -18743323.270 10 0 59867 25200.00000 0 15993398.883 -10777008.341 -16684173.681 10 0 59867 26100.00000 0 17841598.739 -11296281.659 -14300683.992 10 0 59867 27000.00000 0 19347873.509 -11864798.695 -11639264.204 10 0 59867 27900.00000 0 20486653.037 -12427382.849 -8751701.985 10 0 59867 28800.00000 0 21245365.186 -12926449.304 -5694149.635 10 0 59867 29700.00000 0 21624764.602 -13304606.348 -2526027.802 10 0 59867 30600.00000 0 21638716.572 -13507259.475 691132.338 10 0 59867 31500.00000 0 21313446.722 -13485107.959 3894885.396 10 0 59867 32400.00000 0 20686289.733 -13196428.306 7023083.131 10 0 59867 33300.00000 0 19803991.074 -12609048.196 10015077.173 10 0 59867 34200.00000 0 18720634.243 -11701927.748 12812889.795 10 0 59867 35100.00000 0 17495281.395 -10466281.561 15362330.386 10 0 59867 36000.00000 0 16189426.775 -8906194.261 17614036.597 10 0 59867 36900.00000 0 14864369.771 -7038703.497 19524420.737 10 0 59867 37800.00000 0 13578617.306 -4893346.397 21056504.130 10 0 59867 38700.00000 0 12385423.623 -2511187.530 22180624.346 10 0 59867 39600.00000 0 11330569.569 56632.140 22875002.620 10 0 59867 40500.00000 0 10450473.235 2750766.371 23126161.386 10 0 59867 41400.00000 0 9770710.041 5505878.788 22929184.453 10 0 59867 42300.00000 0 9305003.409 8253111.740 22287815.043 10 0 59867 43200.00000 0 9054727.770 10922708.343 21214389.659 10 0 59867 44100.00000 0 9008944.536 13446680.581 19729608.541 10 0 59867 45000.00000 0 9144969.742 15761414.164 17862146.225 10 0 59867 45900.00000 0 9429450.000 17810103.116 15648108.646 10 0 59867 46800.00000 0 9819902.231 19544913.623 13130345.929 10 0 59867 47700.00000 0 10266653.106 20928787.319 10357632.938 10 0 59867 48600.00000 0 10715097.123 21936808.801 7383732.317 10 0 59867 49500.00000 0 11108178.451 22557079.941 4266357.223 10 0 59867 50400.00000 0 11388991.757 22791063.845 1066053.446 10 0 59867 51300.00000 0 11503391.725 22653383.549 -2154977.587 10 0 59867 52200.00000 0 11402500.033 22171083.426 -5334091.824 10 0 59867 53100.00000 0 11045002.550 21382384.053 -8409427.366 10 0 59867 54000.00000 0 10399137.971 20334982.938 -11321116.399 10 0 59867 54900.00000 0 9444292.050 19083972.859 -14012459.713 10 0 59867 55800.00000 0 8172128.209 17689466.022 -16431039.858 10 0 59867 56700.00000 0 6587204.948 16214024.783 -18529750.345 10 0 59867 57600.00000 0 4707052.323 14720007.913 -20267720.114 10 0 59867 58500.00000 0 2561702.797 13266944.902 -21611114.611 10 0 59867 59400.00000 0 192694.926 11909049.422 -22533797.645 10 0 59867 60300.00000 0 -2348409.338 10692976.927 -23017841.032 10 0 59867 61200.00000 0 -5001932.286 9655920.824 -23053872.217 10 0 59867 62100.00000 0 -7702333.778 8824127.000 -22641253.382 10 0 59867 63000.00000 0 -10380716.520 8211888.567 -21788088.914 10 0 59867 63900.00000 0 -12967478.890 7821062.283 -20511061.498 10 0 59867 64800.00000 0 -15395004.935 7641125.815 -18835100.417 10 0 59867 65700.00000 0 -17600279.636 7649772.182 -16792888.921 10 0 59867 66600.00000 0 -19527320.671 7814014.986 -14424220.670 10 0 59867 67500.00000 0 -21129325.811 8091756.428 -11775218.133 10 0 59867 68400.00000 0 -22370447.008 8433750.672 -8897428.573 10 0 59867 69300.00000 0 -23227117.989 8785878.498 -5846815.664 10 0 59867 70200.00000 0 -23688881.036 9091636.134 -2682666.818 10 0 59867 71100.00000 0 -23758679.686 9294732.302 533562.138 10 0 59867 72000.00000 0 -23452606.556 9341683.151 3739441.963 10 0 59867 72900.00000 0 -22799118.344 9184295.064 6872781.201 10 0 59867 73800.00000 0 -21837752.337 8781930.282 9872829.929 10 0 59867 74700.00000 0 -20617399.437 8103459.726 12681452.663 10 0 59867 75600.00000 0 -19194207.046 7128820.675 15244248.034 10 0 59867 76500.00000 0 -17629200.196 5850113.699 17511594.129 10 0 59867 77400.00000 0 -15985720.719 4272192.599 19439599.965 10 0 59867 78300.00000 0 -14326791.311 2412722.186 20990945.704 10 0 59867 79200.00000 0 -12712514.049 301700.750 22135596.437 10 0 59867 80100.00000 0 -11197611.152 -2019533.842 22851376.696 10 0 59867 81000.00000 0 -9829209.539 -4499774.352 23124395.508 10 0 59867 81900.00000 0 -8644960.528 -7079831.132 22949314.408 10 0 59867 82800.00000 0 -7671572.114 -9694759.150 22329453.458 10 0 59867 83700.00000 0 -6923814.250 -12276334.420 21276733.157 10 0 59867 84600.00000 0 -6404038.090 -14755678.819 19811452.798 10 0 59867 85500.00000 0 -6102229.088 -17065925.770 17961908.727 10 0 59868 0.00000 0 -5996591.718 -19144817.109 15763858.942 10 0 59868 900.00000 0 -6054641.558 -20937125.048 13259841.845 10 0 59868 1800.00000 0 -6234759.374 -22396795.966 10498364.135 10 0 59868 2700.00000 0 -6488142.009 -23488730.327 7532968.415 10 0 59868 3600.00000 0 -6761068.338 -24190121.146 4421200.576 10 0 59868 4500.00000 0 -6997384.592 -24491295.442 1223495.346 10 0 59868 5400.00000 0 -7141103.717 -24396022.488 -1997998.363 10 0 59868 6300.00000 0 -7139008.175 -23921275.147 -5180629.298 10 0 59868 7200.00000 0 -6943144.917 -23096453.665 -8262468.671 10 0 59868 8100.00000 0 -6513105.585 -21962104.184 -11183523.316 10 0 59868 9000.00000 0 -5817993.725 -20568185.750 -13886912.615 10 0 59868 9900.00000 0 -4837994.077 -18971958.942 -16319985.177 10 0 59868 10800.00000 0 -3565475.794 -17235585.329 -18435352.623 10 0 59868 11700.00000 0 -2005581.236 -15423539.336 -20191819.576 10 0 59868 12600.00000 0 -176274.003 -13599941.941 -21555191.130 10 0 59868 13500.00000 0 1892157.234 -11825928.818 -22498941.782 10 0 59868 14400.00000 0 4158119.398 -10157163.801 -23004732.742 10 0 59868 15300.00000 0 6570218.174 -8641602.208 -23062767.622 10 0 59868 16200.00000 0 9069181.397 -7317597.656 -22671979.873 10 0 59868 17100.00000 0 11590122.636 -6212431.204 -21840048.679 10 0 59868 18000.00000 0 14065050.602 -5341323.698 -20583243.362 10 0 59868 18900.00000 0 16425519.779 -4706971.533 -18926099.783 10 0 59868 19800.00000 0 18605311.775 -4299623.868 -16900935.376 10 0 59868 20700.00000 0 20543035.576 -4097696.470 -14547212.699 10 0 59868 21600.00000 0 22184538.414 -4068894.638 -11910764.278 10 0 59868 22500.00000 0 23485026.979 -4171796.255 -9042894.185 10 0 59868 23400.00000 0 24410810.845 -4357826.638 -5999374.362 10 0 59868 24300.00000 0 24940596.042 -4573540.479 -2839355.607 10 0 59868 25200.00000 0 25066275.622 -4763113.305 375785.135 10 0 59868 26100.00000 0 24793185.223 -4870936.347 3583638.340 10 0 59868 27000.00000 0 24139814.197 -4844204.510 6721972.810 10 0 59868 27900.00000 0 23136985.577 -4635387.755 9729940.317 10 0 59868 28800.00000 0 21826540.377 -4204481.396 12549250.551 10 0 59868 29700.00000 0 20259582.179 -3520940.341 15125293.924 10 0 59868 30600.00000 0 18494356.062 -2565215.776 17408191.065 10 0 59868 31500.00000 0 16593850.815 -1329829.624 19353749.351 10 0 59868 32400.00000 0 14623224.396 180058.639 20924309.011 10 0 59868 33300.00000 0 12647159.557 1946617.079 22089463.446 10 0 59868 34200.00000 0 10727259.050 3939840.573 22826640.857 10 0 59868 35100.00000 0 8919587.835 6118564.617 23121536.833 10 0 59868 36000.00000 0 7272463.421 8431952.882 22968390.186 10 0 59868 36900.00000 0 5824585.192 10821398.276 22370096.978 10 0 59868 37800.00000 0 4603579.511 13222760.244 21338160.463 10 0 59868 38700.00000 0 3625020.337 15568847.144 19892477.397 10 0 59868 39600.00000 0 2891965.686 17792042.052 18060964.002 10 0 59868 40500.00000 0 2395028.901 19826964.149 15879027.708 10 0 59868 41400.00000 0 2112981.718 21613055.893 13388893.558 10 0 59868 42300.00000 0 2013863.943 23096988.551 10638797.082 10 0 59868 43200.00000 0 2056553.314 24234785.786 7682058.078 10 0 59868 44100.00000 0 2192729.614 24993576.118 4576052.298 10 0 59868 45000.00000 0 2369150.223 25352900.144 1381100.487 10 0 59868 45900.00000 0 2530140.765 25305516.770 -1840703.869 10 0 59868 46800.00000 0 2620194.937 24857673.594 -5026705.144 10 0 59868 47700.00000 0 2586572.641 24028829.106 -8114910.331 10 0 59868 48600.00000 0 2381785.175 22850837.599 -11045203.352 10 0 59868 49500.00000 0 1965860.755 21366630.549 -13760524.342 10 0 59868 50400.00000 0 1308292.885 19628449.684 -16207989.832 10 0 59868 51300.00000 0 389587.408 17695706.130 -18339931.116 10 0 59868 52200.00000 0 -797658.843 15632555.815 -20114829.785 10 0 59868 53100.00000 0 -2248194.858 13505293.467 -21498131.597 10 0 59868 54000.00000 0 -3944092.876 11379674.971 -22462922.508 10 0 59868 54900.00000 0 -5855268.590 9318280.695 -22990453.639 10 0 59868 55800.00000 0 -7940523.146 7378030.510 -23070505.011 10 0 59868 56700.00000 0 -10149063.956 5607954.388 -22701581.281 10 0 59868 57600.00000 0 -12422441.080 4047311.477 -21890935.987 10 0 59868 58500.00000 0 -14696818.357 2724135.600 -20654424.271 10 0 59868 59400.00000 0 -16905484.454 1654266.911 -19016187.335 10 0 59868 60300.00000 0 -18981498.932 840908.771 -17008175.182 10 0 59868 61200.00000 0 -20860362.659 274726.788 -14669517.325 10 0 59868 62100.00000 0 -22482601.049 -65516.072 -12045754.128 10 0 59868 63000.00000 0 -23796152.234 -211816.909 -9187944.064 10 0 59868 63900.00000 0 -24758460.495 -205332.793 -6151664.795 10 0 59868 64800.00000 0 -25338187.817 -94392.325 -2995927.884 10 0 59868 65700.00000 0 -25516472.521 67795.727 217971.300 10 0 59868 66600.00000 0 -25287683.028 225638.798 3427645.679 10 0 59868 67500.00000 0 -24659636.088 323755.521 6570827.079 10 0 59868 68400.00000 0 -23653271.304 309559.130 9586571.730 10 0 59868 69300.00000 0 -22301796.476 135719.885 12416437.221 10 0 59868 70200.00000 0 -20649340.332 -237597.486 15005608.369 10 0 59868 71100.00000 0 -18749169.479 -840815.663 17303950.780 10 0 59868 72000.00000 0 -16661544.349 -1693426.564 19266972.374 10 0 59868 72900.00000 0 -14451303.446 -2802937.045 20856675.267 10 0 59868 73800.00000 0 -12185276.066 -4164322.984 22042282.591 10 0 59868 74700.00000 0 -9929630.459 -5760015.126 22800827.176 10 0 59868 75600.00000 0 -7747266.590 -7560418.217 23117591.669 10 0 59868 76500.00000 0 -5695360.640 -9524942.991 22986392.195 10 0 59868 77400.00000 0 -3823162.040 -11603509.446 22409700.416 10 0 59868 78300.00000 0 -2170133.307 -13738460.519 21398601.541 10 0 59868 79200.00000 0 -764508.978 -15866808.233 19972588.615 10 0 59868 80100.00000 0 377667.197 -17922720.433 18159196.228 10 0 59868 81000.00000 0 1252987.252 -19840145.978 15993479.631 10 0 59868 81900.00000 0 1870587.966 -21555470.082 13517347.999 10 0 59868 82800.00000 0 2251527.675 -23010089.578 10778763.526 10 0 59868 83700.00000 0 2427657.073 -24152800.697 7830820.650 10 0 59868 84600.00000 0 2440031.425 -24941899.142 4730722.283 10 0 59868 85500.00000 0 2336931.083 -25346903.692 1538672.411 99